Photometre #795[NE_1.6] Beijing-CAMS AOT

File : 20200926_795.hum

26/09/2020,00:09:25,TEMP=21.3,BA=5.24,STAT.A=16.0,ExtBa=12.01
26/09/2020,00:11:50,TEMP=21.5,BA=5.24,STAT.A=16.0,ExtBa=12.00
26/09/2020,00:15:21,TEMP=21.6,BA=5.24,STAT.D=16.5,ExtBa=12.00
26/09/2020,00:18:21,TEMP=21.9,BA=5.24,STAT.D=16.5,ExtBa=12.00
26/09/2020,00:21:21,TEMP=22.1,BA=5.36,STAT.D=16.5,ExtBa=12.00
26/09/2020,00:23:16,TEMP=22.5,BA=5.36,STAT.A=16.0,ExtBa=12.00
26/09/2020,00:27:21,TEMP=22.5,BA=5.36,STAT.D=16.5,ExtBa=12.00
26/09/2020,00:30:21,TEMP=22.8,BA=5.48,STAT.D=16.5,ExtBa=12.00
26/09/2020,00:33:21,TEMP=23.0,BA=5.48,STAT.D=16.5,ExtBa=12.01
26/09/2020,00:36:21,TEMP=23.2,BA=5.48,STAT.D=16.5,ExtBa=12.00
26/09/2020,00:38:19,TEMP=23.6,BA=5.48,STAT.A=16.0,ExtBa=12.03
26/09/2020,00:42:21,TEMP=23.6,BA=5.40,STAT.D=16.5,ExtBa=12.02
26/09/2020,00:45:21,TEMP=24.0,BA=5.40,STAT.D=16.5,ExtBa=12.01
26/09/2020,00:48:21,TEMP=24.3,BA=5.40,STAT.D=16.5,ExtBa=12.03
26/09/2020,00:51:21,TEMP=24.5,BA=5.36,STAT.D=16.5,ExtBa=12.05
26/09/2020,00:54:21,TEMP=24.7,BA=5.36,STAT.D=16.5,ExtBa=12.04
26/09/2020,00:56:24,TEMP=25.0,BA=5.36,STAT.B=16.5,ExtBa=12.14
26/09/2020,01:06:21,TEMP=25.5,BA=5.24,STAT.D=16.5,ExtBa=11.09
26/09/2020,01:08:24,TEMP=25.9,BA=5.24,STAT.F,ExtBa=10.39
26/09/2020,01:23:28,TEMP=26.5,BA=5.24,STAT.D=16.5,ExtBa=10.08
26/09/2020,01:27:21,TEMP=26.5,BA=5.24,STAT.D=16.5,ExtBa=10.09
26/09/2020,01:30:21,TEMP=26.8,BA=5.48,STAT.D=16.5,ExtBa=10.08
26/09/2020,01:33:21,TEMP=27.0,BA=5.48,STAT.D=16.5,ExtBa=10.08
26/09/2020,01:36:21,TEMP=27.3,BA=5.48,STAT.D=16.5,ExtBa=10.08
26/09/2020,01:38:22,TEMP=27.6,BA=5.48,STAT.D=16.5,ExtBa=10.06
26/09/2020,01:42:21,TEMP=27.5,BA=5.20,STAT.D=17.5,ExtBa=10.08
26/09/2020,01:45:21,TEMP=27.6,BA=5.20,STAT.D=16.5,ExtBa=10.08
26/09/2020,01:48:21,TEMP=27.7,BA=5.20,STAT.D=17.5,ExtBa=10.07
26/09/2020,01:51:21,TEMP=27.8,BA=5.28,STAT.D=17.5,ExtBa=10.08
26/09/2020,01:53:15,TEMP=28.1,BA=5.28,STAT.D=16.5,ExtBa=10.06
26/09/2020,01:57:21,TEMP=28.2,BA=5.28,STAT.D=17.5,ExtBa=10.08
26/09/2020,02:00:22,TEMP=28.5,BA=5.48,STAT.D=17.5,ExtBa=10.08
26/09/2020,02:03:21,TEMP=28.8,BA=5.48,STAT.D=17.5,ExtBa=10.08
26/09/2020,02:06:22,TEMP=28.9,BA=5.48,STAT.D=17.5,ExtBa=10.08
26/09/2020,02:08:25,TEMP=29.2,BA=5.48,STAT.F,ExtBa=10.04
26/09/2020,02:23:18,TEMP=29.6,BA=5.20,STAT.D=17.5,ExtBa=10.10
26/09/2020,02:27:22,TEMP=29.5,BA=5.20,STAT.D=17.5,ExtBa=10.10
26/09/2020,02:30:22,TEMP=29.7,BA=5.32,STAT.D=17.5,ExtBa=10.09
26/09/2020,02:33:22,TEMP=29.9,BA=5.32,STAT.D=17.5,ExtBa=10.09
26/09/2020,02:36:22,TEMP=30.2,BA=5.32,STAT.D=17.5,ExtBa=10.07
26/09/2020,02:38:14,TEMP=30.4,BA=5.32,STAT.D=17.5,ExtBa=10.06
26/09/2020,02:42:22,TEMP=30.3,BA=5.28,STAT.D=17.5,ExtBa=10.09
26/09/2020,02:45:22,TEMP=30.3,BA=5.28,STAT.D=17.5,ExtBa=10.09
26/09/2020,02:48:22,TEMP=30.5,BA=5.28,STAT.D=17.5,ExtBa=10.08
26/09/2020,02:51:22,TEMP=30.5,BA=5.20,STAT.D=17.5,ExtBa=10.07
26/09/2020,02:53:16,TEMP=30.5,BA=5.20,STAT.D=17.5,ExtBa=10.05
26/09/2020,02:57:22,TEMP=30.1,BA=5.20,STAT.D=17.5,ExtBa=10.07
26/09/2020,03:00:22,TEMP=30.1,BA=5.44,STAT.D=17.5,ExtBa=10.07
26/09/2020,03:03:22,TEMP=30.0,BA=5.44,STAT.D=17.5,ExtBa=10.06
26/09/2020,03:06:22,TEMP=30.0,BA=5.44,STAT.D=17.5,ExtBa=10.06
26/09/2020,03:08:19,TEMP=30.2,BA=5.44,STAT.F,ExtBa=10.03
26/09/2020,03:21:22,TEMP=30.2,BA=5.44,STAT.D=17.5,ExtBa=10.12
26/09/2020,03:23:21,TEMP=30.6,BA=5.44,STAT.D=17.5,ExtBa=10.06
26/09/2020,03:27:22,TEMP=30.7,BA=5.44,STAT.D=17.5,ExtBa=10.08
26/09/2020,03:30:22,TEMP=30.6,BA=5.44,STAT.D=17.5,ExtBa=10.07
26/09/2020,03:36:24,TEMP=30.0,BA=5.44,STAT.D=18.0,ExtBa=10.09
26/09/2020,03:39:22,TEMP=30.3,BA=5.44,STAT.D=17.5,ExtBa=10.04
26/09/2020,03:42:22,TEMP=30.5,BA=5.20,STAT.D=17.5,ExtBa=10.06
26/09/2020,03:51:24,TEMP=30.6,BA=5.44,STAT.D=17.5,ExtBa=10.10
26/09/2020,03:54:22,TEMP=30.5,BA=5.44,STAT.D=17.5,ExtBa=10.05
26/09/2020,04:06:22,TEMP=30.4,BA=5.32,STAT.D=18.0,ExtBa=10.12
26/09/2020,04:10:01,TEMP=30.8,BA=5.32,STAT.F,ExtBa=10.03
26/09/2020,04:33:56,TEMP=30.9,BA=5.20,STAT.D=17.5,ExtBa=10.11
26/09/2020,04:36:22,TEMP=31.0,BA=5.20,STAT.D=17.5,ExtBa=10.09
26/09/2020,04:38:23,TEMP=31.1,BA=5.20,STAT.D=17.5,ExtBa=10.06
26/09/2020,04:42:22,TEMP=30.9,BA=5.16,STAT.D=17.5,ExtBa=10.08
26/09/2020,04:45:22,TEMP=31.1,BA=5.16,STAT.D=17.5,ExtBa=10.08
26/09/2020,04:48:22,TEMP=31.2,BA=5.16,STAT.D=17.5,ExtBa=10.08
26/09/2020,04:51:22,TEMP=31.3,BA=5.16,STAT.D=17.5,ExtBa=10.07
26/09/2020,04:53:16,TEMP=31.4,BA=5.16,STAT.D=17.5,ExtBa=10.04
26/09/2020,04:57:22,TEMP=31.0,BA=5.16,STAT.D=17.5,ExtBa=10.08
26/09/2020,05:00:22,TEMP=31.1,BA=5.32,STAT.D=17.5,ExtBa=10.07
26/09/2020,05:03:22,TEMP=31.3,BA=5.32,STAT.D=17.5,ExtBa=10.05
26/09/2020,05:06:22,TEMP=31.4,BA=5.32,STAT.D=17.5,ExtBa=10.04
26/09/2020,05:08:21,TEMP=31.7,BA=5.32,STAT.F,ExtBa=10.01
26/09/2020,05:22:42,TEMP=31.0,BA=5.12,STAT.D=17.5,ExtBa=10.08
26/09/2020,05:36:22,TEMP=30.5,BA=5.32,STAT.D=18.0,ExtBa=10.14
26/09/2020,05:38:24,TEMP=30.8,BA=5.32,STAT.D=17.5,ExtBa=10.05
26/09/2020,05:42:22,TEMP=30.6,BA=5.24,STAT.D=17.5,ExtBa=10.10
26/09/2020,05:45:22,TEMP=30.7,BA=5.24,STAT.D=17.5,ExtBa=10.06
26/09/2020,05:48:22,TEMP=30.4,BA=5.24,STAT.D=17.5,ExtBa=10.08
26/09/2020,05:51:22,TEMP=30.3,BA=5.24,STAT.D=17.5,ExtBa=10.09
26/09/2020,05:53:16,TEMP=30.4,BA=5.24,STAT.D=17.5,ExtBa=10.05
26/09/2020,05:57:21,TEMP=30.2,BA=5.24,STAT.D=17.5,ExtBa=10.10
26/09/2020,06:00:22,TEMP=30.3,BA=5.32,STAT.D=17.5,ExtBa=10.09
26/09/2020,06:03:22,TEMP=30.3,BA=5.32,STAT.D=17.5,ExtBa=10.07
26/09/2020,06:06:22,TEMP=30.4,BA=5.32,STAT.D=17.5,ExtBa=10.08
26/09/2020,06:08:19,TEMP=30.6,BA=5.32,STAT.F,ExtBa=10.02
26/09/2020,06:22:54,TEMP=30.2,BA=5.12,STAT.D=17.5,ExtBa=10.14
26/09/2020,06:36:21,TEMP=29.8,BA=5.28,STAT.D=17.5,ExtBa=10.14
26/09/2020,06:38:15,TEMP=30.1,BA=5.28,STAT.D=17.5,ExtBa=10.08
26/09/2020,06:42:21,TEMP=29.9,BA=5.24,STAT.D=17.5,ExtBa=10.11
26/09/2020,06:45:21,TEMP=29.9,BA=5.24,STAT.D=17.5,ExtBa=10.10
26/09/2020,06:48:21,TEMP=29.9,BA=5.24,STAT.D=17.5,ExtBa=10.10
26/09/2020,06:51:21,TEMP=29.9,BA=5.20,STAT.D=17.5,ExtBa=10.08
26/09/2020,06:53:14,TEMP=30.1,BA=5.20,STAT.D=17.5,ExtBa=10.06
26/09/2020,06:57:21,TEMP=29.9,BA=5.20,STAT.D=17.5,ExtBa=10.11
26/09/2020,07:00:21,TEMP=29.8,BA=5.28,STAT.D=17.5,ExtBa=10.09
26/09/2020,07:03:21,TEMP=29.6,BA=5.28,STAT.D=17.5,ExtBa=10.09
26/09/2020,07:06:21,TEMP=29.4,BA=5.28,STAT.D=17.5,ExtBa=10.10
26/09/2020,07:08:17,TEMP=29.6,BA=5.28,STAT.F,ExtBa=10.04
26/09/2020,07:19:01,TEMP=29.9,BA=5.12,STAT.B=17.5,ExtBa=10.08
26/09/2020,07:30:21,TEMP=29.2,BA=5.28,STAT.D=17.5,ExtBa=10.10
26/09/2020,07:33:21,TEMP=29.3,BA=5.28,STAT.D=17.5,ExtBa=10.09
26/09/2020,07:35:35,TEMP=29.3,BA=5.28,STAT.A=17.5,ExtBa=10.08
26/09/2020,07:48:21,TEMP=27.8,BA=5.28,STAT.D=18.0,ExtBa=10.14
26/09/2020,07:50:16,TEMP=28.1,BA=5.12,STAT.A=17.5,ExtBa=10.09
26/09/2020,07:54:21,TEMP=28.0,BA=5.12,STAT.D=17.5,ExtBa=10.12
26/09/2020,07:57:21,TEMP=28.2,BA=5.12,STAT.D=17.5,ExtBa=10.11
26/09/2020,08:00:21,TEMP=28.3,BA=5.28,STAT.D=17.5,ExtBa=10.07
26/09/2020,08:02:22,TEMP=28.4,BA=5.28,STAT.A=17.5,ExtBa=10.04
26/09/2020,08:10:28,TEMP=27.9,BA=5.28,STAT.A=17.5,ExtBa=10.15
26/09/2020,08:15:21,TEMP=27.8,BA=5.28,STAT.D=17.5,ExtBa=10.13
26/09/2020,08:18:21,TEMP=27.8,BA=5.28,STAT.D=17.5,ExtBa=10.11
26/09/2020,08:20:15,TEMP=28.0,BA=5.12,STAT.C=17.5,ExtBa=10.08
26/09/2020,08:31:00,TEMP=27.7,BA=5.08,STAT.A=17.5,ExtBa=10.08
26/09/2020,08:32:57,TEMP=27.7,BA=5.08,STAT.A=17.5,ExtBa=10.06
26/09/2020,08:36:21,TEMP=27.4,BA=5.08,STAT.D=17.5,ExtBa=10.09
26/09/2020,08:38:15,TEMP=27.5,BA=5.08,STAT.A=17.5,ExtBa=10.06
26/09/2020,08:41:31,TEMP=27.2,BA=5.20,STAT.A=17.5,ExtBa=10.09
26/09/2020,08:45:20,TEMP=27.0,BA=5.20,STAT.D=17.5,ExtBa=10.10
26/09/2020,08:47:16,TEMP=27.1,BA=5.20,STAT.B=17.5,ExtBa=10.06
26/09/2020,08:56:21,TEMP=26.6,BA=5.08,STAT.A=17.5,ExtBa=10.08
26/09/2020,09:00:20,TEMP=26.3,BA=5.28,STAT.D=17.5,ExtBa=10.09
26/09/2020,09:02:15,TEMP=26.5,BA=5.28,STAT.A=17.5,ExtBa=10.06
26/09/2020,09:06:20,TEMP=26.0,BA=5.28,STAT.D=17.5,ExtBa=10.09
26/09/2020,09:08:14,TEMP=26.1,BA=5.28,STAT.A=17.5,ExtBa=10.07
26/09/2020,09:11:47,TEMP=25.7,BA=5.20,STAT.A=17.5,ExtBa=10.10
26/09/2020,09:15:43,TEMP=25.5,BA=5.20,STAT.A=17.5,ExtBa=10.10
26/09/2020,09:19:05,TEMP=25.3,BA=5.20,STAT.A=17.5,ExtBa=10.11
26/09/2020,22:54:42,TEMP=16.3,BA=5.52,STAT.A=16.5,ExtBa=12.18
26/09/2020,22:58:04,TEMP=16.6,BA=5.52,STAT.A=16.0,ExtBa=12.16
26/09/2020,23:02:01,TEMP=16.7,BA=5.44,STAT.A=16.5,ExtBa=12.14
26/09/2020,23:06:42,TEMP=16.8,BA=5.44,STAT.A=16.5,ExtBa=12.14
26/09/2020,23:12:21,TEMP=17.0,BA=5.44,STAT.A=16.5,ExtBa=12.08
26/09/2020,23:15:20,TEMP=17.2,BA=5.44,STAT.D=16.0,ExtBa=12.07
26/09/2020,23:18:20,TEMP=17.3,BA=5.44,STAT.D=16.0,ExtBa=12.06
26/09/2020,23:20:15,TEMP=17.6,BA=5.32,STAT.A=16.0,ExtBa=12.05
26/09/2020,23:24:21,TEMP=17.6,BA=5.32,STAT.D=16.0,ExtBa=12.06
26/09/2020,23:27:20,TEMP=17.7,BA=5.32,STAT.D=16.0,ExtBa=12.05
26/09/2020,23:29:15,TEMP=18.0,BA=5.32,STAT.B=16.0,ExtBa=12.04
26/09/2020,23:38:02,TEMP=18.4,BA=5.28,STAT.A=16.0,ExtBa=12.00
26/09/2020,23:39:59,TEMP=18.7,BA=5.28,STAT.A=16.0,ExtBa=12.00
26/09/2020,23:42:21,TEMP=18.8,BA=5.28,STAT.D=16.0,ExtBa=12.00
26/09/2020,23:44:18,TEMP=19.0,BA=5.28,STAT.A=16.0,ExtBa=12.00
26/09/2020,23:48:21,TEMP=19.0,BA=5.28,STAT.D=16.5,ExtBa=11.99
26/09/2020,23:50:18,TEMP=19.4,BA=5.36,STAT.A=16.0,ExtBa=11.99
26/09/2020,23:54:21,TEMP=19.5,BA=5.36,STAT.D=16.5,ExtBa=12.00
26/09/2020,23:56:24,TEMP=19.8,BA=5.36,STAT.C=16.0,ExtBa=11.99